This is the latest recevied weather packets stored in our database for station/object KD8NVS-13. If no packets are shown the sender has not sent any weather packets the latest 10 day(s).
| Time | Temp. | Humidity | Pressure | Rain* | Wind** | Luminosity | Snow |
|---|---|---|---|---|---|---|---|
| 1777384853 | 16.67° C | 94% | 1003.5 hPa | 0 mm | - | 70 W/m² | - |
| 1777384550 | 16.11° C | 94% | 1003.2 hPa | 0 mm | - | 63 W/m² | - |
| 1777384245 | 16.11° C | 94% | 1003.2 hPa | 0 mm | - | 97 W/m² | - |
| 1777383941 | 16.11° C | 94% | 1002.8 hPa | 0 mm | - | 72 W/m² | - |
| 1777383637 | 16.11° C | 94% | 1002.8 hPa | 0 mm | - | 88 W/m² | - |
| 1777383334 | 16.11° C | 93% | 1003.2 hPa | 0 mm | - | 61 W/m² | - |
| 1777383031 | 16.11° C | 94% | 1002.8 hPa | 0 mm | - | 73 W/m² | - |
| 1777382727 | 15.56° C | 94% | 1002.8 hPa | 0 mm | - | 112 W/m² | - |
| 1777382422 | 15.56° C | 94% | 1002.5 hPa | 0 mm | - | 102 W/m² | - |
| 1777382119 | 15.56° C | 94% | 1002.5 hPa | 0 mm | - | 97 W/m² | - |
| 1777381815 | 15° C | 94% | 1002.8 hPa | 0 mm | - | 102 W/m² | - |
| 1777381508 | 15° C | 94% | 1002.8 hPa | 0 mm | - | 95 W/m² | - |
| 1777381205 | 14.44° C | 94% | 1002.5 hPa | 0 mm | - | 55 W/m² | - |
| 1777380903 | 14.44° C | 94% | 1002.5 hPa | 0 mm | - | 39 W/m² | - |
| 1777380599 | 14.44° C | 94% | 1002.5 hPa | 0 mm | - | 40 W/m² | - |
| 1777380295 | 14.44° C | 94% | 1002.5 hPa | 0 mm | - | 32 W/m² | - |
| 1777379991 | 14.44° C | 94% | 1002.5 hPa | 0 mm | - | 28 W/m² | - |
| 1777379688 | 14.44° C | 94% | 1002.5 hPa | 0 mm | - | 32 W/m² | - |
| 1777379383 | 14.44° C | 94% | 1002.5 hPa | 0 mm | - | 35 W/m² | - |
| 1777379078 | 14.44° C | 94% | 1002.5 hPa | 0 mm | - | 27 W/m² | - |
| 1777378773 | 14.44° C | 94% | 1002.5 hPa | 0 mm | - | 26 W/m² | - |
| 1777378471 | 14.44° C | 94% | 1002.1 hPa | 0 mm | - | 29 W/m² | - |
| 1777378166 | 14.44° C | 94% | 1002.1 hPa | 0 mm | - | 37 W/m² | - |
| 1777377859 | 13.89° C | 94% | 1002.1 hPa | 0 mm | - | 46 W/m² | - |
| 1777377553 | 13.89° C | 94% | 1002.1 hPa | 0 mm | - | 56 W/m² | - |
* Rain latest hour (hover to see other rain measurements)
** Current wind speed in m/s (hover to see current wind gust speed)